Location: downtown San Diego
(32.7310°N, 117.1990°W)
Time: 02:35:55
(UTC-07:00)

SPOT 1/Viking Rocket - Pass Details

Date: 12 July 2018
Orbit: 777 x 795 km, 98.6° (Epoch: 19 September)

Event Time Altitude Azimuth Distance (km) Brightness Sun altitude
Exits shadow 22:54:45 52° 256° (WSW) 967 4.0 -28.4°
Maximum altitude 22:54:51 52° 259° (W) 967 4.0 -28.4°
Drops below altitude 10° 22:59:53 10° 336° (NNW) 2,345 6.9 -29.0°
Sets 23:02:17 0° 341° (NNW) 3,280 7.9 -29.2°
